[[{"header":{"parameterUnit":"m.s-1","parameterCategory":1,"la1":30.2991,"la2":30.254,"lo1":-89.0895,"lo2":-89.0444,"dy":0.0017,"dx":0.0017,"nx":28,"ny":28,"refTime":"2025-03-21T03:00:00:Z","depth":0,"parameterNumber":2,"parameterNumberName":"U-component_of_WINDS"},"data":[0,0,0,0,0,0,0,0,0,0,0,0,0,0,0,0,0,0,0,0,0,0,0,0,0,0,0,0,0,0,0,0,0,0,0,0,0,0,0,0,0,0,0,0,0,0,0,0,0,0,0,0,0,0,0,0,0,0,4.4152,4.4153,0,4.4281,4.4283,4.4284,4.4255,4.4253,4.425,4.4248,4.4378,4.4384,4.4389,0,0,0,0,0,0,0,0,0,0,0,0,0,4.3873,4.3879,4.4152,4.4153,4.4155,4.4281,4.4283,4.4285,4.4256,4.4253,4.425,4.4247,4.4376,4.4383,4.439,0,0,0,0,0,0,0,0,0,0,0,0,0,4.3998,4.388,4.4151,4.4156,4.4157,4.4281,4.4283,4.4285,4.4256,4.4253,4.4249,4.4246,4.4374,4.4382,4.4391,4.4517,0,0,4.4417,4.4421,0,0,0,0,0,0,0,0,4.3991,4.4008,4.4154,4.4156,4.4158,4.4249,4.4233,4.4363,4.4257,4.4219,4.4248,4.4244,4.4338,4.4349,4.4381,4.4523,4.4529,4.4418,4.4423,4.4427,4.4429,0,0,0,0,0,0,0,4.3982,4.4002,4.4203,4.4156,4.4158,4.4149,4.4163,4.4257,4.4297,4.4222,4.422,4.4236,4.4338,4.4373,4.4384,4.4531,4.4418,4.4425,4.4431,4.4434,4.4777,4.478,0,0,0,0,0,0,4.3972,4.3995,4.4199,4.4207,4.4064,4.4157,4.4173,4.4223,4.4296,4.4304,4.4239,4.4234,4.436,4.4374,4.4389,4.4537,4.4427,4.4435,4.444,4.4773,4.4777,4.4782,0,0,0,0,0,0,4.3966,4.3991,4.4194,4.4101,4.4126,4.4166,4.4223,4.4228,4.4262,4.4309,4.4316,4.4268,4.4358,4.4377,4.4484,4.4541,4.4439,4.4447,4.4768,4.4774,4.478,4.4837,0,0,0,0,0,0,4.3959,4.3989,4.4039,4.4102,4.4131,4.4289,4.4227,4.4233,4.4278,4.4273,4.4338,4.4345,4.4357,4.4472,4.4493,4.4551,4.4453,4.4763,4.4771,4.4778,4.483,4.4844,4.4856,0,0,0,0,0,4.3949,4.4051,4.4042,4.4066,4.4195,4.4292,4.4309,4.4321,4.4283,4.4331,4.4361,4.4343,4.4532,4.4483,4.4507,4.4568,4.4759,4.4769,4.4777,4.4824,4.4841,4.4856,0,0,0,0,0,0,4.3993,4.4059,4.405,4.4176,4.4229,4.4287,4.435,4.4339,4.4404,4.4396,4.4408,4.4423,4.4531,4.4561,4.4505,4.4691,4.464,4.4654,4.4668,4.4684,4.4697,4.4686,4.4461,0,0,0,0,0,4.4018,4.4093,4.4146,4.4252,4.4279,4.431,4.4353,4.4358,4.4413,4.4435,4.4472,4.4525,4.4595,4.4642,4.4711,4.4835,4.4846,4.4889,4.4902,4.4912,4.4923,4.4986,4.5004,4.4811,4.4811,4.4811,0,0,4.4069,4.4114,4.4161,4.4262,4.4303,4.4378,4.4329,4.4412,4.4467,4.4447,4.455,4.4579,4.4638,4.4754,4.4806,4.4782,4.4979,4.4924,4.4931,4.4937,4.4997,4.5015,4.5031,4.4817,4.4816,4.4815,0,0,4.42,4.4244,4.4334,4.4376,4.4439,4.4459,4.448,4.454,4.4558,4.4662,4.4647,4.4712,4.4836,4.4877,4.4914,4.5056,4.504,4.5078,4.5145,4.5206,4.5221,4.5234,4.528,4.5297,4.509,4.509,4.509,0,4.4255,4.4369,4.4382,4.4465,4.4507,4.4493,4.4582,4.4622,4.4704,4.4732,4.4704,4.4855,4.4895,4.5017,4.5051,4.5084,4.5105,4.507,4.5218,4.5232,4.5244,4.5288,4.5306,4.5094,4.5093,4.5093,4.5093,0,4.4432,4.4511,4.4576,4.4654,4.4704,4.4791,4.4813,4.4862,4.4861,4.4883,4.4986,4.5032,4.5107,4.5137,4.5139,4.5258,4.524,4.5216,4.5163,4.5266,4.5307,4.5325,4.5099,4.5098,4.5097,4.5096,0,0,4.4595,4.4676,4.47,4.4733,4.48,4.486,4.4944,4.5017,4.5056,4.5113,4.518,4.5284,4.5259,4.5301,4.5307,4.5361,4.5464,4.5328,4.533,4.5348,4.5593,4.5609,4.5628,4.5455,4.5459,4.5461,4.5586,0,4.4728,4.4875,4.4887,4.5019,4.5089,4.5075,4.5147,4.5194,4.5216,4.5277,4.5301,4.5371,4.5337,4.5361,4.5414,4.544,4.5513,4.5432,4.5514,4.5517,4.5496,4.5651,4.5669,4.5785,4.5603,4.5606,4.5608,0,4.4903,4.4963,4.5102,4.5155,4.5185,4.5249,4.5314,4.5375,4.5427,4.5438,4.5484,4.548,4.5563,4.5509,4.5621,4.5565,4.5599,4.5617,4.5622,4.5627,4.5566,4.5656,4.5823,4.5838,4.5635,4.5633,4.5631,0,4.5002,4.5118,4.5214,4.5244,4.531,4.5354,4.5383,4.5432,4.5473,4.5531,4.5557,4.5623,4.5658,4.5708,4.5722,4.5683,4.5831,4.578,4.5839,4.5839,4.5869,4.5866,4.6039,4.5898,4.5897,4.5897,4.5897,0,4.5147,4.5231,4.5259,4.5318,4.541,4.5422,4.5512,4.5539,4.5581,4.5643,4.5636,4.5693,4.5709,4.5769,4.578,4.5867,4.5885,4.5894,4.5895,4.5892,4.589,4.5912,4.5903,4.5902,4.5901,4.59,4.5899,0,4.5272,4.5295,4.5398,4.5451,4.5465,4.5531,4.5574,4.563,4.5649,4.5727,4.5746,4.5776,4.5846,4.5865,4.5949,4.5956,4.6057,4.6053,4.6039,4.6038,4.6094,4.6087,4.6285,4.6309,4.6156,4.6157,4.6158,0,4.5362,4.5426,4.5484,4.5525,4.5555,4.5622,4.5663,4.5677,4.572,4.5782,4.5828,4.5897,4.5952,4.6063,4.6092,4.6154,4.6149,4.6214,4.6158,4.6152,4.6144,4.6139,4.6143,4.6223,4.6225,4.6226,4.6227,0,4.5516,4.5523,4.5584,4.5648,4.5698,4.5749,4.5798,4.5831,4.5851,4.5899,4.597,4.6013,4.6097,4.6163,4.6226,4.6253,4.6242,4.6245,4.6261,4.6257,4.6244,4.6247,4.6063,4.6239,4.6238,4.6237,4.6237,4.6236,4.5623,4.5677,4.5726,4.5792,4.583,4.5875,4.5928,4.5953,4.6013,4.6082,4.6086,4.6161,4.6207,4.629,4.6321,4.6379,4.6359,4.6384,4.6389,4.6394,4.6396,4.6238,4.6391,4.6391,4.639,4.639,4.639,0,4.5773,4.5803,4.5865,4.5932,4.5983,4.597,4.6022,4.6065,4.6131,4.6176,4.623,4.6308,4.6372,4.6405,4.6467,4.6506,4.6502,4.6522,4.6517,4.6522,4.6413,4.6391,4.6523,4.6523,4.6523,4.6523,4.6523,4.6523,4.5857,4.5946,4.5958,4.6065,4.6094,4.6167,4.6197,4.6237,4.6272,4.636,4.6413,4.6434,4.6472,4.6537,4.6593,4.6601,4.6622,4.6643,4.6648,4.6545,4.6531,4.6518,4.6496,4.6649,4.6649,4.6752,4.6753,4.6754]},{"header":{"parameterUnit":"m.s-1","parameterCategory":1,"la1":30.2991,"la2":30.254,"lo1":-89.0895,"lo2":-89.0444,"dy":0.0017,"dx":0.0017,"nx":28,"ny":28,"refTime":"2025-03-21T03:00:00:Z","depth":0,"parameterNumber":3,"parameterNumberName":"V-component_of_WINDS"},"data":[0,0,0,0,0,0,0,0,0,0,0,0,0,0,0,0,0,0,0,0,0,0,0,0,0,0,0,0,0,0,0,0,0,0,0,0,0,0,0,0,0,0,0,0,0,0,0,0,0,0,0,0,0,0,0,0,0,0,4.2017,4.2018,0,4.2119,4.212,4.2121,4.2089,4.2086,4.2084,4.2082,4.2184,4.2188,4.2193,0,0,0,0,0,0,0,0,0,0,0,0,0,4.1789,4.1793,4.2017,4.2018,4.202,4.2119,4.212,4.2122,4.2089,4.2086,4.2084,4.2081,4.2182,4.2188,4.2193,0,0,0,0,0,0,0,0,0,0,0,0,0,4.1889,4.1794,4.2017,4.2015,4.2016,4.2119,4.212,4.2122,4.2089,4.2086,4.2083,4.208,4.218,4.2187,4.2194,4.2303,0,0,4.2216,4.2219,0,0,0,0,0,0,0,0,4.1883,4.1897,4.2014,4.2016,4.2017,4.2088,4.2077,4.2183,4.209,4.2062,4.2082,4.2078,4.2154,4.2163,4.2189,4.2308,4.2312,4.2216,4.2221,4.2224,4.2226,0,0,0,0,0,0,0,4.1876,4.1893,4.2057,4.2016,4.2018,4.2008,4.2018,4.2097,4.2125,4.2064,4.2062,4.2074,4.2154,4.2183,4.2191,4.2314,4.2216,4.2222,4.2227,4.223,4.2521,4.2525,0,0,0,0,0,0,4.1869,4.1887,4.2054,4.206,4.1941,4.2014,4.2026,4.2068,4.2124,4.2129,4.2077,4.2072,4.2172,4.2183,4.2195,4.2323,4.2224,4.223,4.2234,4.2518,4.2522,4.2526,0,0,0,0,0,0,4.1864,4.1884,4.205,4.1973,4.1994,4.2022,4.2069,4.2072,4.21,4.2134,4.2138,4.2101,4.217,4.2185,4.2275,4.2326,4.2233,4.224,4.2514,4.2519,4.2524,4.2582,0,0,0,0,0,0,4.1858,4.1883,4.1926,4.1975,4.1998,4.2131,4.2072,4.2076,4.2113,4.2108,4.2158,4.2163,4.2169,4.2265,4.2283,4.2334,4.2245,4.2509,4.2516,4.2522,4.2576,4.2589,4.26,0,0,0,0,0,4.185,4.1939,4.1929,4.1949,4.2053,4.2134,4.2147,4.2153,4.2117,4.216,4.2181,4.2161,4.2318,4.2275,4.2294,4.2349,4.2506,4.2514,4.2522,4.2571,4.2586,4.26,0,0,0,0,0,0,4.1897,4.1946,4.1935,4.2043,4.2084,4.2128,4.2183,4.217,4.2222,4.2215,4.2219,4.223,4.2322,4.2345,4.2296,4.2455,4.2407,4.2419,4.2437,4.2452,4.2464,4.2456,4.2251,0,0,0,0,0,4.1919,4.1983,4.2021,4.2113,4.2134,4.2155,4.219,4.2191,4.2234,4.2251,4.2279,4.232,4.2378,4.2416,4.2472,4.2579,4.2587,4.2626,4.2638,4.2647,4.2657,4.2711,4.2728,4.2552,4.2552,4.2552,0,0,4.1967,4.2002,4.2041,4.2123,4.2155,4.2218,4.217,4.224,4.2286,4.2261,4.2348,4.2369,4.2416,4.2514,4.2558,4.2535,4.2708,4.2657,4.2665,4.267,4.2721,4.2738,4.2752,4.2557,4.2556,4.2555,0,0,4.2086,4.212,4.2198,4.223,4.228,4.2292,4.2311,4.2356,4.2369,4.2457,4.2438,4.2492,4.2593,4.2626,4.2655,4.2782,4.2765,4.28,4.2862,4.2915,4.2928,4.2941,4.2983,4.2998,4.281,4.281,4.281,0,4.2139,4.2235,4.2239,4.2309,4.2344,4.2324,4.2401,4.2433,4.2497,4.2521,4.2494,4.2617,4.2648,4.2751,4.2781,4.2807,4.2826,4.2794,4.2926,4.2939,4.295,4.299,4.3006,4.2814,4.2813,4.2813,4.2813,0,4.2295,4.2362,4.2418,4.2481,4.2522,4.2595,4.2608,4.2649,4.2644,4.2659,4.2745,4.278,4.284,4.2865,4.2862,4.2967,4.295,4.2925,4.2877,4.2971,4.3008,4.3024,4.2819,4.2818,4.2817,4.2816,0,0,4.2448,4.251,4.253,4.2556,4.2608,4.2658,4.2729,4.2788,4.2821,4.2865,4.2923,4.3007,4.2982,4.3016,4.3016,4.3062,4.3156,4.3031,4.3032,4.3051,4.3269,4.3287,4.3305,4.3145,4.3148,4.315,4.3264,0,4.2569,4.2695,4.2699,4.2812,4.2871,4.2851,4.2912,4.2949,4.2963,4.3014,4.3029,4.3088,4.3053,4.3072,4.3117,4.3135,4.3199,4.3127,4.3196,4.3198,4.3183,4.3325,4.3345,4.3451,4.328,4.3282,4.3284,0,4.2728,4.2776,4.2896,4.2934,4.2959,4.3015,4.3067,4.3116,4.3156,4.3162,4.3198,4.319,4.3259,4.3209,4.3302,4.3253,4.328,4.3293,4.3297,4.3303,4.3246,4.3332,4.3485,4.3501,4.3308,4.3306,4.3304,0,4.2824,4.2919,4.3001,4.3025,4.3073,4.3112,4.3133,4.317,4.3204,4.3249,4.327,4.3323,4.3351,4.3391,4.3396,4.3359,4.3488,4.3439,4.3494,4.3493,4.3521,4.3519,4.3679,4.3542,4.3542,4.3542,4.3541,0,4.2958,4.3031,4.3044,4.3095,4.3175,4.3178,4.3256,4.3274,4.3306,4.3358,4.3344,4.3393,4.3398,4.3447,4.3451,4.3525,4.3539,4.3545,4.3544,4.3545,4.3544,4.3562,4.3554,4.3546,4.3545,4.3544,4.3544,0,4.3078,4.3091,4.3179,4.3217,4.3228,4.3285,4.3316,4.3362,4.3374,4.344,4.3455,4.3474,4.353,4.3539,4.3607,4.3609,4.3697,4.3691,4.3684,4.3683,4.3736,4.373,4.3912,4.3934,4.3785,4.3786,4.3787,0,4.3162,4.3218,4.326,4.3294,4.3318,4.3373,4.3407,4.341,4.3445,4.3492,4.3533,4.3588,4.3633,4.3724,4.3742,4.3792,4.3785,4.3845,4.3792,4.379,4.3783,4.3778,4.3782,4.3855,4.3857,4.3858,4.3859,0,4.3309,4.3311,4.3361,4.3413,4.3453,4.3494,4.3532,4.356,4.3568,4.3608,4.3666,4.37,4.3767,4.3821,4.387,4.389,4.3875,4.3875,4.389,4.389,4.3883,4.3885,4.371,4.3871,4.387,4.3869,4.3868,4.3868,4.3412,4.3459,4.3495,4.355,4.3579,4.3614,4.3658,4.3675,4.3724,4.3779,4.3777,4.384,4.3874,4.3938,4.3961,4.4008,4.3988,4.4011,4.4016,4.4021,4.4025,4.3877,4.4017,4.4017,4.4017,4.4016,4.4016,0,4.3555,4.3577,4.3627,4.368,4.3723,4.3705,4.3745,4.3781,4.3837,4.387,4.3913,4.3978,4.4029,4.405,4.41,4.4133,4.4127,4.4146,4.4142,4.4146,4.4041,4.4022,4.415,4.4149,4.4149,4.4149,4.4149,4.4149,4.3634,4.3712,4.3718,4.3807,4.3828,4.389,4.3914,4.3945,4.3971,4.4043,4.4086,4.4099,4.4126,4.4177,4.4222,4.4227,4.4245,4.4266,4.4267,4.4168,4.4155,4.4142,4.4124,4.4271,4.4271,4.4369,4.437,4.437]}]]